Home > Weather > Durango > Past weeks

Flag for USA Past Weather in Durango, Colorado, USA — Yesterday and Last 2 Weeks

Now
57 °F

Clear.


Feels Like: 54 °F
Forecast: 53 / 84 °F
Wind: 12 mph from North

Location: Durango-La Plata County Airport

Current Time: Jun 26, 2016 at 6:01:32 AM

Latest Report: Jun 26, 2016 at 4:53 AM


Visibility: 10 mi

Pressure: 30.01 "Hg (23.68 "Hg at 1989m altitude)

Humidity: 51%

Dew Point: 39 °F

Location of DurangoLocation

Past Weather in Durango — Graph

°F

Durango Temperature Yesterday

Maximum temperature yesterday: 87 °F (at 2:53 PM)
Minimum temperature yesterday: 57 °F (at 5:53 AM)
Average temperature yesterday: 72 °F

High & Low Weather Summary for the Past Weeks

 TemperatureHumidityPressure
High95 °F (Jun 20, 3:53 PM)79% (Jun 14, 5:53 AM)30.42 "Hg (Jun 14, 5:53 AM)
Low35 °F (Jun 16, 4:53 AM)4% (Jun 18, 5:53 PM)29.82 "Hg (Jun 15, 7:53 PM)
Average69 °F32%29.98 "Hg
* Reported Jun 11 3:53 AM — Jun 26 3:53 AM, Durango, Weather by CustomWeather, © 2016

Note: Actual official high and low records may vary slightly from our data, if they occured in-between our weather recording intervals... More about our weather records

Advertising

Durango Weather History for the Previous 24 Hours

Scroll right to see more
 ConditionsComfort  
Time TempWeatherWind HumidityBarometerVisibility
3:53 AM
Sun, Jun 26
57 °FClear.5 mph51%30.03 "Hg10 mi
2:53 AM55 °FClear.No wind57%29.98 "Hg10 mi
1:53 AM60 °FClear.No wind46%29.95 "Hg10 mi
12:53 AM61 °FClear.5 mph48%29.95 "Hg10 mi
11:53 PM
Sat, Jun 25
63 °FClear.3 mph45%29.95 "Hg10 mi
10:53 PM67 °FClear.3 mph39%29.94 "Hg10 mi
9:53 PM68 °FClear.8 mph35%29.91 "Hg10 mi
8:53 PM73 °FSunny.7 mph29%29.89 "Hg10 mi
7:53 PM81 °FSunny.5 mph20%29.87 "Hg10 mi
6:53 PM86 °FSunny.6 mph14%29.85 "Hg10 mi
5:53 PM87 °FSunny.No wind14%29.85 "Hg10 mi
4:53 PM86 °FPassing clouds.N/A14%29.87 "Hg10 mi
3:53 PM81 °FPassing clouds.16 mph20%29.91 "Hg10 mi
2:53 PM87 °FScattered clouds.3 mph14%29.86 "Hg10 mi
1:53 PM86 °FSunny.5 mph15%29.88 "Hg10 mi
12:53 PM85 °FSunny.6 mph17%29.89 "Hg10 mi
11:53 AM82 °FSunny.5 mph22%29.91 "Hg10 mi
10:53 AM77 °FSunny.5 mph29%29.95 "Hg10 mi
9:53 AM76 °FSunny.7 mph30%29.93 "Hg10 mi
8:53 AM67 °FSunny.No wind39%29.96 "Hg10 mi
7:53 AM61 °FSunny.No wind50%29.96 "Hg10 mi
6:53 AM57 °FSunny.No wind55%29.95 "Hg10 mi
Weather by CustomWeather, © 2016

See weather overviewHow to use our weather pages